Location: Newark
(52.8300°N, 8.0000°E)
Time: 06:41:29
(UTC+00:00)

STARLINK-1108 - Pass Details

Date: 29 January 2020
Orbit: 348 x 351 km, 53.0° (Epoch: 24 February)

Event Time Altitude Azimuth Distance (km) Brightness Sun altitude
Rises 16:17:55 0° 276° (W) 2,158 7.8 -2.4°
Reaches altitude 10° 16:19:55 10° 276° (W) 1,315 6.6 -2.7°
Maximum altitude 16:22:51 88° 7° (N) 355 2.7 -3.0°
Drops below altitude 10° 16:25:47 10° 96° (E) 1,314 5.1 -3.4°
Enters shadow 16:27:31 - 97° (E) 2,038 6.0 -3.7°
Exits shadow 17:02:04 -74° 102° (ESE) 12,602 10.4 -8.5°
